This is the latest recevied weather packets stored in our database for station/object WX7FGZ-5. If no packets are shown the sender has not sent any weather packets the latest 10 day(s).
| Time | Temp. | Humidity | Pressure | Rain* | Wind** | Luminosity | Snow |
|---|---|---|---|---|---|---|---|
| 1777778223 | 12.78° C | 33% | 1023.3 hPa | 0 mm | - | 0 W/m² | - |
| 1777776723 | 13.89° C | 32% | 1023.1 hPa | 0 mm | - | 0 W/m² | - |
| 1777775823 | 14.44° C | 30% | 1022.7 hPa | 0 mm | - | 0 W/m² | - |
| 1777775223 | 14.44° C | 29% | 1022.6 hPa | 0 mm | - | 0 W/m² | - |
| 1777774923 | 14.44° C | 29% | 1022.7 hPa | 0 mm | - | 0 W/m² | - |
| 1777773723 | 15.56° C | 27% | 1022.5 hPa | 0 mm | - | 14 W/m² | - |
| 1777773123 | 16.11° C | 28% | 1022.4 hPa | 0 mm | - | 26 W/m² | - |
| 1777772834 | 16.11° C | 28% | 1022.5 hPa | 0 mm | - | 35 W/m² | - |
| 1777772223 | 16.11° C | 27% | 1022.6 hPa | 0 mm | - | 47 W/m² | - |
| 1777771626 | 16.67° C | 27% | 1022.5 hPa | 0 mm | - | 58 W/m² | - |
| 1777771323 | 16.67° C | 26% | 1022.6 hPa | 0 mm | - | 72 W/m² | - |
| 1777770724 | 16.67° C | 26% | 1022.6 hPa | 0 mm | - | 79 W/m² | - |
| 1777770423 | 17.22° C | 26% | 1022.6 hPa | 0 mm | - | 142 W/m² | - |
| 1777769942 | 16.67° C | 26% | 1022.6 hPa | 0 mm | - | 237 W/m² | - |
| 1777769643 | 16.67° C | 26% | 1022.6 hPa | 0 mm | - | 93 W/m² | - |
| 1777769362 | 16.67° C | 26% | 1022.6 hPa | 0 mm | - | 91 W/m² | - |
| 1777768443 | 16.67° C | 26% | 1022.3 hPa | 0 mm | - | 107 W/m² | - |
| 1777767843 | 16.67° C | 24% | 1022.4 hPa | 0 mm | - | 98 W/m² | - |
| 1777767576 | 16.67° C | 25% | 1022.4 hPa | 0 mm | - | 104 W/m² | - |
| 1777767543 | 16.67° C | 25% | 1022.4 hPa | 0 mm | - | 104 W/m² | - |
| 1777766943 | 16.67° C | 25% | 1022.6 hPa | 0 mm | - | 88 W/m² | - |
| 1777766643 | 16.67° C | 24% | 1022.5 hPa | 0 mm | - | 88 W/m² | - |
| 1777766342 | 16.67° C | 25% | 1022.5 hPa | 0 mm | - | 91 W/m² | - |
| 1777766042 | 17.22° C | 25% | 1022.6 hPa | 0 mm | - | 97 W/m² | - |
| 1777765743 | 17.22° C | 25% | 1022.7 hPa | 0 mm | - | 118 W/m² | - |
* Rain latest hour (hover to see other rain measurements)
** Current wind speed in m/s (hover to see current wind gust speed)